[[{"header":{"parameterUnit":"m.s-1","parameterCategory":1,"la1":30.2991,"la2":30.254,"lo1":-89.0895,"lo2":-89.0444,"dy":0.0017,"dx":0.0017,"nx":28,"ny":28,"refTime":"2024-04-08T21:00:00:Z","depth":0,"parameterNumber":2,"parameterNumberName":"U-component_of_WINDS"},"data":[0,0,0,0,0,0,0,0,0,0,0,0,0,0,0,0,0,0,0,0,0,0,0,0,0,0,0,0,0,0,0,0,0,0,0,0,0,0,0,0,0,0,0,0,0,0,0,0,0,0,0,0,0,0,0,0,0,0,-7.1166,-7.1167,0,-7.1258,-7.1259,-7.126,-7.1236,-7.1234,-7.1232,-7.123,-7.132,-7.1324,-7.1328,0,0,0,0,0,0,0,0,0,0,0,0,0,-7.0965,-7.0969,-7.1166,-7.1167,-7.1168,-7.1258,-7.1259,-7.126,-7.1236,-7.1234,-7.1231,-7.1229,-7.1319,-7.1323,-7.1328,0,0,0,0,0,0,0,0,0,0,0,0,0,-7.1054,-7.097,-7.1165,-7.1167,-7.1168,-7.1258,-7.1259,-7.1261,-7.1236,-7.1234,-7.1231,-7.1228,-7.1317,-7.1323,-7.1329,-7.1422,0,0,-7.1348,-7.135,0,0,0,0,0,0,0,0,-7.1049,-7.1061,-7.1165,-7.1167,-7.1168,-7.1233,-7.1221,-7.1314,-7.1237,-7.121,-7.123,-7.1227,-7.1293,-7.1301,-7.1324,-7.1426,-7.143,-7.1348,-7.1352,-7.1355,-7.1356,0,0,0,0,0,0,0,-7.1043,-7.1057,-7.1202,-7.1167,-7.1169,-7.1162,-7.1171,-7.1239,-7.1265,-7.1212,-7.1211,-7.1222,-7.1293,-7.1318,-7.1326,-7.1431,-7.1348,-7.1354,-7.1357,-7.136,-7.1613,-7.1616,0,0,0,0,0,0,-7.1036,-7.1052,-7.1199,-7.1205,-7.1101,-7.1167,-7.1178,-7.1215,-7.1265,-7.127,-7.1225,-7.1221,-7.1309,-7.1319,-7.1329,-7.1439,-7.1355,-7.136,-7.1364,-7.161,-7.1614,-7.1617,0,0,0,0,0,0,-7.1032,-7.105,-7.1195,-7.1128,-7.1146,-7.1174,-7.1215,-7.1218,-7.1243,-7.1274,-7.1278,-7.1245,-7.1307,-7.132,-7.1399,-7.1442,-7.1363,-7.1369,-7.1606,-7.1611,-7.1615,-7.1662,0,0,0,0,0,0,-7.1026,-7.1048,-7.1084,-7.1129,-7.115,-7.1265,-7.1218,-7.1222,-7.1254,-7.125,-7.1295,-7.1299,-7.1306,-7.139,-7.1405,-7.1449,-7.1374,-7.1603,-7.1608,-7.1614,-7.1656,-7.1667,-7.1677,0,0,0,0,0,-7.1019,-7.1093,-7.1086,-7.1104,-7.1196,-7.1268,-7.1279,-7.1286,-7.1258,-7.1293,-7.1314,-7.1298,-7.1436,-7.1398,-7.1415,-7.1462,-7.16,-7.1607,-7.1613,-7.1652,-7.1665,-7.1676,0,0,0,0,0,0,-7.105,-7.1099,-7.1092,-7.1183,-7.1221,-7.1263,-7.1308,-7.1301,-7.1347,-7.1341,-7.1347,-7.1357,-7.1437,-7.1458,-7.1415,-7.1554,-7.1513,-7.1524,-7.1537,-7.155,-7.156,-7.1551,-7.1379,0,0,0,0,0,-7.1068,-7.1123,-7.1162,-7.1239,-7.1259,-7.1281,-7.1312,-7.1315,-7.1354,-7.137,-7.1396,-7.1434,-7.1486,-7.1519,-7.1569,-7.1661,-7.1669,-7.1701,-7.1711,-7.1719,-7.1727,-7.1776,-7.179,-7.1639,-7.1639,-7.1639,0,0,-7.1104,-7.1138,-7.1172,-7.1246,-7.1276,-7.1332,-7.1294,-7.1355,-7.1396,-7.1379,-7.1454,-7.1475,-7.1518,-7.1603,-7.1642,-7.1623,-7.1771,-7.1728,-7.1734,-7.1738,-7.1784,-7.1799,-7.1811,-7.1644,-7.1643,-7.1643,0,0,-7.1198,-7.1231,-7.1297,-7.1329,-7.1376,-7.139,-7.1406,-7.1451,-7.1464,-7.1541,-7.1529,-7.1578,-7.1667,-7.1698,-7.1725,-7.1833,-7.182,-7.1849,-7.1901,-7.1948,-7.196,-7.197,-7.2007,-7.202,-7.1858,-7.1858,-7.1858,0,-7.1237,-7.1322,-7.1331,-7.1394,-7.1426,-7.1416,-7.1482,-7.1512,-7.1572,-7.1594,-7.1572,-7.1685,-7.1713,-7.1804,-7.1831,-7.1855,-7.1871,-7.1842,-7.1958,-7.1968,-7.1978,-7.2013,-7.2027,-7.1861,-7.1861,-7.186,-7.186,0,-7.1366,-7.1425,-7.1473,-7.1533,-7.1571,-7.1635,-7.1653,-7.169,-7.1691,-7.1707,-7.1785,-7.1819,-7.1875,-7.1898,-7.1898,-7.199,-7.1976,-7.1957,-7.1915,-7.1996,-7.2028,-7.2042,-7.1866,-7.1864,-7.1864,-7.1863,0,0,-7.1478,-7.1545,-7.1562,-7.1589,-7.1641,-7.1686,-7.175,-7.1807,-7.1837,-7.188,-7.1932,-7.2009,-7.1992,-7.2023,-7.2027,-7.2069,-7.215,-7.2044,-7.2045,-7.206,-7.2251,-7.2263,-7.2278,-7.2143,-7.2146,-7.2148,-7.2247,0,-7.1575,-7.1688,-7.1699,-7.1799,-7.1853,-7.1845,-7.1901,-7.1938,-7.1956,-7.2003,-7.2023,-7.2076,-7.205,-7.2069,-7.2111,-7.2131,-7.2188,-7.2125,-7.2189,-7.2191,-7.2175,-7.2296,-7.2309,-7.24,-7.226,-7.2262,-7.2263,0,-7.1702,-7.175,-7.1856,-7.1901,-7.1924,-7.1973,-7.2025,-7.2072,-7.2114,-7.2124,-7.216,-7.2159,-7.2223,-7.2183,-7.227,-7.2227,-7.2255,-7.2269,-7.2273,-7.2276,-7.223,-7.2299,-7.2429,-7.2442,-7.2284,-7.2282,-7.2281,0,-7.177,-7.1862,-7.1936,-7.196,-7.2015,-7.205,-7.2074,-7.2114,-7.2147,-7.2193,-7.2215,-7.2267,-7.2295,-7.2336,-7.2348,-7.2318,-7.2435,-7.2396,-7.2443,-7.2442,-7.2464,-7.2462,-7.2597,-7.2488,-7.2488,-7.2487,-7.2487,0,-7.1875,-7.1939,-7.1968,-7.2013,-7.2085,-7.2098,-7.2169,-7.2191,-7.2227,-7.2276,-7.2273,-7.2319,-7.2335,-7.2383,-7.2393,-7.2463,-7.2476,-7.2485,-7.2486,-7.2483,-7.2482,-7.2498,-7.2491,-7.2491,-7.249,-7.2489,-7.2489,0,-7.1962,-7.1984,-7.2065,-7.2111,-7.2125,-7.2175,-7.2214,-7.2258,-7.2276,-7.2338,-7.2353,-7.2381,-7.2438,-7.2456,-7.2524,-7.2531,-7.2612,-7.2609,-7.2597,-7.2597,-7.2642,-7.2636,-7.2789,-7.2809,-7.269,-7.2691,-7.2692,0,-7.2026,-7.2075,-7.2128,-7.2161,-7.2187,-7.2241,-7.2275,-7.2291,-7.2326,-7.2379,-7.2416,-7.2472,-7.2518,-7.2609,-7.2634,-7.2686,-7.2683,-7.2733,-7.269,-7.2686,-7.268,-7.2676,-7.268,-7.274,-7.2741,-7.2742,-7.2743,0,-7.2136,-7.2144,-7.2195,-7.2249,-7.2291,-7.2334,-7.2376,-7.2403,-7.2424,-7.2464,-7.2523,-7.2559,-7.2629,-7.2685,-7.2738,-7.2762,-7.2755,-7.2757,-7.277,-7.2766,-7.2756,-7.2759,-7.2616,-7.2753,-7.2752,-7.2751,-7.275,-7.275,-7.2211,-7.2254,-7.2298,-7.2354,-7.2388,-7.2427,-7.247,-7.2495,-7.2544,-7.2603,-7.261,-7.2673,-7.2714,-7.2785,-7.2812,-7.286,-7.2846,-7.2865,-7.287,-7.2873,-7.2876,-7.2752,-7.2871,-7.287,-7.287,-7.287,-7.287,0,-7.2318,-7.2347,-7.2399,-7.2458,-7.2502,-7.2495,-7.2541,-7.2578,-7.2633,-7.2673,-7.2719,-7.2786,-7.2841,-7.2872,-7.2926,-7.2958,-7.2957,-7.2972,-7.2968,-7.2973,-7.2887,-7.2869,-7.2972,-7.2972,-7.2972,-7.2972,-7.2972,-7.2972,-7.2379,-7.2452,-7.2466,-7.2555,-7.2583,-7.2645,-7.2672,-7.2708,-7.274,-7.2815,-7.2861,-7.2881,-7.2918,-7.2974,-7.3023,-7.3031,-7.305,-7.3066,-7.3071,-7.299,-7.2979,-7.2969,-7.2952,-7.3071,-7.3071,-7.3153,-7.3154,-7.3154]},{"header":{"parameterUnit":"m.s-1","parameterCategory":1,"la1":30.2991,"la2":30.254,"lo1":-89.0895,"lo2":-89.0444,"dy":0.0017,"dx":0.0017,"nx":28,"ny":28,"refTime":"2024-04-08T21:00:00:Z","depth":0,"parameterNumber":3,"parameterNumberName":"V-component_of_WINDS"},"data":[0,0,0,0,0,0,0,0,0,0,0,0,0,0,0,0,0,0,0,0,0,0,0,0,0,0,0,0,0,0,0,0,0,0,0,0,0,0,0,0,0,0,0,0,0,0,0,0,0,0,0,0,0,0,0,0,0,0,5.4098,5.4098,0,5.4142,5.4143,5.4143,5.4136,5.4136,5.4135,5.4134,5.4176,5.4178,5.418,0,0,0,0,0,0,0,0,0,0,0,0,0,5.4006,5.4007,5.4098,5.4098,5.4099,5.4142,5.4143,5.4143,5.4137,5.4136,5.4135,5.4134,5.4176,5.4178,5.418,0,0,0,0,0,0,0,0,0,0,0,0,0,5.4047,5.4008,5.4098,5.4101,5.4102,5.4142,5.4143,5.4144,5.4137,5.4136,5.4135,5.4133,5.4175,5.4178,5.418,5.422,0,0,5.4189,5.419,0,0,0,0,0,0,0,0,5.4045,5.4051,5.41,5.4101,5.4102,5.4133,5.4126,5.4169,5.4137,5.4123,5.4134,5.4133,5.4162,5.4166,5.4177,5.4221,5.4223,5.4189,5.419,5.4192,5.4192,0,0,0,0,0,0,0,5.4042,5.4049,5.4115,5.4101,5.4102,5.41,5.4104,5.4134,5.4148,5.4124,5.4124,5.413,5.4163,5.4174,5.4178,5.4224,5.4189,5.4191,5.4193,5.4194,5.4306,5.4307,0,0,0,0,0,0,5.4039,5.4046,5.4114,5.4117,5.407,5.4102,5.4107,5.4124,5.4148,5.4151,5.4131,5.4129,5.417,5.4175,5.4179,5.4229,5.4192,5.4194,5.4196,5.4305,5.4306,5.4308,0,0,0,0,0,0,5.4037,5.4045,5.4112,5.4082,5.409,5.4105,5.4123,5.4125,5.4137,5.4153,5.4155,5.414,5.4169,5.4175,5.421,5.423,5.4195,5.4198,5.4303,5.4305,5.4307,5.4327,0,0,0,0,0,0,5.4034,5.4044,5.4059,5.4082,5.4092,5.4143,5.4125,5.4127,5.4142,5.4141,5.4162,5.4165,5.4169,5.4206,5.4213,5.4233,5.42,5.4301,5.4304,5.4306,5.4325,5.433,5.4334,0,0,0,0,0,5.4031,5.4062,5.406,5.4068,5.4111,5.4144,5.415,5.4155,5.4144,5.4159,5.417,5.4164,5.4227,5.421,5.4218,5.4239,5.43,5.4303,5.4306,5.4323,5.4329,5.4334,0,0,0,0,0,0,5.4039,5.4065,5.4063,5.4102,5.4122,5.4143,5.4162,5.4161,5.4182,5.418,5.4185,5.419,5.4226,5.4236,5.4217,5.428,5.4262,5.4266,5.4272,5.4278,5.4282,5.4279,5.4202,0,0,0,0,0,5.4046,5.4071,5.4092,5.4124,5.4134,5.4147,5.4161,5.4165,5.4184,5.4191,5.4205,5.4223,5.4247,5.4263,5.4286,5.4326,5.4332,5.4345,5.4349,5.4353,5.4357,5.4381,5.4388,5.4318,5.4318,5.4318,0,0,5.4059,5.4076,5.4091,5.4127,5.4142,5.4168,5.4154,5.4181,5.4201,5.4195,5.423,5.4241,5.4261,5.43,5.4318,5.4309,5.4378,5.4356,5.4359,5.4361,5.4385,5.4392,5.4398,5.432,5.4319,5.4319,0,0,5.4097,5.4112,5.4143,5.4159,5.4183,5.4192,5.4199,5.4222,5.4229,5.4264,5.4262,5.4285,5.4325,5.4341,5.4355,5.4403,5.4399,5.441,5.4433,5.4457,5.4462,5.4467,5.4486,5.4493,5.4414,5.4414,5.4414,0,5.411,5.4151,5.4158,5.4187,5.4204,5.4202,5.4233,5.4248,5.4277,5.4288,5.4279,5.4333,5.4346,5.439,5.4402,5.4412,5.4421,5.4407,5.4461,5.4466,5.4471,5.4489,5.4496,5.4415,5.4415,5.4415,5.4415,0,5.4167,5.4195,5.4217,5.4248,5.4267,5.4296,5.4308,5.4326,5.4328,5.4338,5.4375,5.4392,5.4419,5.443,5.4431,5.4474,5.4469,5.446,5.4443,5.4479,5.4496,5.4503,5.4417,5.4416,5.4416,5.4416,0,0,5.421,5.4248,5.4255,5.4271,5.4299,5.432,5.4351,5.438,5.4396,5.4416,5.4443,5.4479,5.4472,5.4487,5.449,5.4511,5.4551,5.45,5.4501,5.451,5.4602,5.4609,5.4617,5.4548,5.4549,5.455,5.4601,0,5.4252,5.4308,5.4317,5.4365,5.4392,5.4392,5.4419,5.4439,5.4449,5.4474,5.4484,5.4511,5.4499,5.4509,5.4529,5.4541,5.4569,5.4538,5.4573,5.4574,5.4569,5.4625,5.4632,5.4679,5.4607,5.4608,5.4609,0,5.4309,5.4334,5.4386,5.4413,5.4425,5.4449,5.4478,5.4501,5.4524,5.453,5.4549,5.455,5.4582,5.4563,5.4608,5.4586,5.4601,5.4609,5.4611,5.4615,5.4594,5.4632,5.4694,5.4701,5.4619,5.4618,5.4618,0,5.4338,5.4384,5.4423,5.4435,5.4467,5.4484,5.4498,5.452,5.4538,5.4562,5.4574,5.4601,5.4616,5.4637,5.4646,5.4631,5.4691,5.4672,5.4698,5.4698,5.471,5.471,5.4777,5.4718,5.4718,5.4718,5.4718,0,5.4385,5.4417,5.4436,5.446,5.4497,5.4506,5.4542,5.4555,5.4575,5.4601,5.4602,5.4626,5.4636,5.4661,5.4668,5.4705,5.4712,5.4718,5.4719,5.4719,5.4718,5.4729,5.4726,5.472,5.4719,5.4719,5.4719,0,5.4423,5.4437,5.4479,5.4507,5.4514,5.454,5.4564,5.4587,5.4598,5.4631,5.4639,5.4656,5.4687,5.4698,5.4734,5.4739,5.4783,5.4781,5.4776,5.4776,5.4802,5.48,5.4879,5.489,5.4823,5.4824,5.4824,0,5.4452,5.4478,5.4509,5.4528,5.4543,5.4572,5.4591,5.4602,5.4622,5.4651,5.4671,5.4702,5.4728,5.4777,5.4792,5.482,5.482,5.4846,5.4824,5.4823,5.4822,5.4822,5.4825,5.485,5.4851,5.4851,5.4852,0,5.4504,5.4511,5.4539,5.4571,5.4594,5.4619,5.4642,5.4657,5.4671,5.4694,5.4726,5.4746,5.4785,5.4817,5.4846,5.486,5.4859,5.4859,5.4866,5.4866,5.4863,5.4867,5.4788,5.4857,5.4856,5.4856,5.4856,5.4855,5.454,5.4564,5.4591,5.4623,5.4643,5.4666,5.469,5.4705,5.4733,5.4767,5.4771,5.4807,5.4831,5.4871,5.4886,5.4914,5.4907,5.4917,5.492,5.4923,5.4926,5.4858,5.4919,5.4919,5.4919,5.4919,5.4918,0,5.4594,5.4612,5.4641,5.4676,5.4702,5.47,5.4727,5.4748,5.478,5.4804,5.483,5.4868,5.4899,5.4918,5.4949,5.4968,5.4968,5.4976,5.4975,5.4978,5.4929,5.4921,5.4975,5.4975,5.4975,5.4975,5.4975,5.4975,5.4625,5.4666,5.4676,5.4727,5.4744,5.4781,5.4797,5.4818,5.4837,5.4881,5.4908,5.492,5.4942,5.4975,5.5004,5.5008,5.502,5.5029,5.5033,5.4987,5.4981,5.4976,5.4968,5.5031,5.5031,5.508,5.508,5.5081]}]]